Regional Weather Roundup
Issued by NWS

Home | Current Version | Previous Version | Text Only | Print | Product List | Glossary On
Versions: 1 2 3 4 5 6 7 8 9 10 11 12 13 14 15 16 17 18 19 20 21 22 23 24 25 26 27 28 29 30 31 32 33 34 35 36 37 38 39 40 41 42 43 44 45 46 47 48 49 50
000
ASUS44 KLUB 271410
RWRTX
WEST TEXAS WEATHER ROUNDUP
NATIONAL WEATHER SERVICE LUBBOCK TX
800 AM CST THU NOV 27 2014

NOTE: "FAIR" INDICATES FEW OR NO CLOUDS BELOW 12,000 FEET WITH NO
SIGNIFICANT WEATHER AND/OR OBSTRUCTIONS TO VISIBILITY.

TXZ004-006>008-010-012-014-016-OKZ002-271500-
TEXAS PANHANDLE/OKLAHOMA PANHANDLE

CITY           SKY/WX    TMP DP  RH WIND       PRES   REMARKS
AMARILLO       PTCLDY    27  20  75 S15       30.43S WCI  15
BORGER         PTCLDY    28  18  66 SW6       30.44R WCI  22
CANADIAN       PTCLDY    20  18  89 CALM      30.47S
DALHART        PTCLDY    24  19  81 SW9       30.40S WCI  14
DUMAS            N/A     24  19  81 S9        30.40F WCI  14
GUYMON         PTCLDY    25  17  72 S9        30.38F WCI  15
HEREFORD       PTCLDY    28  24  84 S6        30.45R WCI  21
PAMPA          PTCLDY    28  19  71 S10       30.44R WCI  18
PERRYTON       CLEAR     23  18  79 S6        30.41F WCI  16
$$

TXZ026-029-035-045-048-271500-
SOUTHERN PANHANDLE/SOUTH PLAINS/ROLLING PLAINS

CITY           SKY/WX    TMP DP  RH WIND       PRES   REMARKS
CHILDRESS      MOCLDY    31  22  69 W3        30.52R
SEMINOLE       CLEAR     33  29  87 CALM      30.47S
LUBBOCK        CLEAR     30  22  72 SE6       30.46R WCI  24
PLAINVIEW      PTCLDY    28  22  79 CALM      30.45R
SNYDER         PTCLDY    34  26  74 E3        30.49S
$$

TXZ052-054-060>062-072-078-127-140-154-169-271500-
PERMIAN BASIN/CONCHO VALLEY/BIG COUNTRY/EDWARDS PLATEAU

CITY           SKY/WX    TMP DP  RH WIND       PRES   REMARKS
ABILENE        CLEAR     34  27  75 SW3       30.50R
BIG SPRING     CLEAR     38  32  78 NE5       30.50R WCI  35
BRADY          CLEAR     39  28  65 E5        30.48R
BROWNWOOD      CLEAR     36  32  87 CALM      30.51R
JUNCTION       CLEAR     33  28  81 CALM      30.48R
MIDLAND        PTCLDY    33  29  85 N5        30.46R WCI  29
ODESSA         PTCLDY    34  29  82 NE8       30.47R WCI  27
SAN ANGELO     CLEAR     32  29  88 W3        30.49R
SONORA         CLEAR     34  30  86 N3        30.50R
SWEETWATER     PTCLDY    34  28  80 E5        30.51S WCI  30
WINK           PTCLDY    32  25  75 N7        30.45R WCI  26
$$

TXZ055-058-074-075-080-082-271500-
FAR WEST/SOUTHWEST MOUNTAINS/TRANS PECOS

CITY           SKY/WX    TMP DP  RH WIND       PRES   REMARKS
ALPINE         PTCLDY    33  22  65 SW5       30.49R WCI  28
DRYDEN           N/A     45  33  63 N8        30.43R
EL PASO        CLEAR     34  17  50 NE5       30.40R WCI  30
FORT STOCKTON  PTCLDY    34  27  75 SW7       30.44R WCI  28
MARFA          CLEAR     28  19  69 NW6       30.45R WCI  22
PECOS          PTCLDY    31  25  79 NE3       30.45R
PRESIDIO       FAIR      41  25  53 CALM      30.42R
$$

TXZ014-016-019-021>030-083-271500
TEXAS TECH WEST TEXAS MESONET/TEXAS PANHANDLE/NORTHERN SOUTH PLAINS

CITY           SKY/WX    TMP DP  RH WIND       PRES   REMARKS
ABERNATHY 5ENE   N/A     28  23  83 SE6       30.47R WCI  21
AMARILLO 9NNE    N/A     26  22  83 S6        30.44S WCI  19
AMARILLO 7SSE    N/A     27  21  76 S9        30.45R WCI  18
AMHERST 1NE      N/A     29  24  82 S5        30.45R WCI  24
BOOTLEG 11WNW    N/A     32  26  77 SW14      30.42S WCI  22
CANADIAN 6E      N/A     22  17  81 CALM      30.45S
CAPROCK CYN SP   N/A     32  22  68 SW5       30.49S WCI  27
CHILDRESS 2NNE   N/A     29  23  75 W5        30.51R WCI  24
CLARENDON 2WSW   N/A     25  19  80 S5        30.47S WCI  19
CLAUDE 12SW      N/A     29  19  65 S8        30.45R WCI  22
DIMMITT 2NE      N/A     28  21  76 S7        30.45R WCI  21
FLOYDADA 2NNE    N/A     26  21  82 E1        30.47R
FRIONA 2NE       N/A     22  19  86 CALM      30.44S
GOODLETT 3W      N/A     31  24  75 NW5       30.52R WCI  26
HART 3N          N/A     26  20  78 SE3       30.46R
HEREFORD 2NW     N/A     26  20  77 S6        30.44S WCI  19
MCLEAN 1E        N/A     28  19  69 S5        30.45R WCI  22
MEMPHIS 1NE      N/A     25  21  87 NW2       30.51R
MULESHOE 2SSW    N/A     21  19  93 CALM      30.45R
OLTON 6S         N/A     27  22  80 SE6       30.46R WCI  20
PALO DURO SP     N/A     30  19  63 S9        30.46S WCI  21
PAMPA 2E         N/A     28  20  73 S12       30.43S WCI  17
PLAINVIEW 1S     N/A     29  22  76 SE2       30.46R
SILVERTON 7ESE   N/A     26  20  76 SE5       30.47S WCI  21
TULIA 2ENE       N/A     26  21  83 S5        30.46R WCI  20
TURKEY 2WSW      N/A     29  23  78 S3        30.49S
UMBARGER 3NNE    N/A     26  20  75 S8        30.44S WCI  18
$$

TXZ033>036-039>041-045>048-271500
TEXAS TECH WEST TEXAS MESONET/SOUTH PLAINS

CITY           SKY/WX    TMP DP  RH WIND       PRES   REMARKS
AIKEN 3WSW       N/A     25  19  78 SE5       30.48R WCI  20
ANDREWS 2NE      N/A     33  30  86 NE5       30.47R WCI  29
ANTON 6SSW       N/A     29  24  84 SE2       30.46R
BROWNFIELD 2S    N/A     30  26  84 SE3       30.46S
DENVR CTY 7WNW   N/A     30  28  89 S2        30.45S
GAIL 2ESE        N/A     31  27  86 N1        30.48S
LAMESA 2SE       N/A     33  29  85 E5        30.47F WCI  29
LEVELLAND 4S     N/A     30  23  77 SE3       30.46R
LUBBOCK 3WNW     N/A     33  23  65 SE6       30.47S WCI  28
MORTON 1ENE      N/A     26  23  87 E3        30.45R
ODONNELL 1N      N/A     32  27  83 E3        30.47S
PLAINS 3N        N/A     28  24  85 S2        30.45S
RALLS 1SE        N/A     29  21  74 E3        30.48R
REESE CENTER     N/A     32  24  72 SE7       30.46R WCI  26
SEAGRAVES 1SW    N/A     26  24  91 NE1       30.46S
SEMINOLE 2NNE    N/A     32  29  88 NE2       30.46S
SLATON 2NE       N/A     31  24  77 SE3       30.47S
SNYDER 3E        N/A     35  26  69 E7        30.48R WCI  30
SUNDOWN 8SW      N/A     26  22  86 SE1       30.45R
TAHOKA 3NNE      N/A     31  26  81 E3        30.47R
WOLFFORTH 6SSW   N/A     29  25  82 NE2       30.47R
$$

TXZ031-032-036>038-042>044-271500-
TEXAS TECH WEST TEXAS MESONET/ROLLING PLAINS

CITY           SKY/WX    TMP DP  RH WIND       PRES   REMARKS
ASPERMONT 3NE    N/A     28  26  91 N2        30.53R
GRAHAM 5SSW      N/A     34  25  70 E6        30.48R WCI  28
GUTHRIE 10WSW    N/A     31  23  72 N2        30.51R
HASKELL 1NW      N/A     33  29  84 N7        30.52R WCI  27
JAYTON 1SSE      N/A     32  27  79 N3        30.51R
KNOX CITY 3NW    N/A     32  28  85 N1        30.54R
LK A HENRY 1NW   N/A     33  28  80 N3        30.50R
NORTHFIELD 1S    N/A     28  24  84 SW3       30.51S
ODELL 4ENE       N/A     30  28  90 SW3       30.54R
PADUCAH 10SW     N/A     34  23  63 CALM      30.52R
POST 1NE         N/A     34  24  67 NE1       30.49R
RRING SPRGS 3N   N/A     29  23  76 S5        30.49S WCI  24
SEYMOUR 3NW      N/A     33  29  85 N5        30.53S WCI  29
SPUR 1W          N/A     27  24  87 N6        30.50R WCI  21
WEINERT 2NNE     N/A     33  29  85 N3        30.53R
WHITE RVR 6NE    N/A     34  22  61 E3        30.49R
$$

TXZ052-054-060>062-072-078-127-140-154-169-271500-
TEXAS TECH WEST TEXAS MESONET/PERMIAN BASIN/
CONCHO VALLEY/BIG COUNTRY/EDWARDS PLATEAU

CITY           SKY/WX    TMP DP  RH WIND       PRES   REMARKS
COYANOSA 2N      N/A     34  27  76 S2        30.46R
JUNCTION 1SSW    N/A     31  29  90 CALM      30.50R
MERTZON 3NNE     N/A     33  29  83 CALM      30.50R
SAN ANGELO 7NW   N/A     40  32  74 NE3       30.50R
STRLNG CT 4WSW   N/A     31  30  94 SW2       30.50R
ST LAWRNCE 5SW   N/A     35  31  83 E6        30.47R WCI  30
SWEETWATR 11SW   N/A     34  30  85 E6        30.49R WCI  29
WALL 1E          N/A     33  29  87 N2        30.50R
$$

TXZ055-058-074-075-080-082-271500-
TEXAS TECH WEST TEXAS MESONET/FAR WEST/SOUTHWEST MOUNTAINS/TRANS PECOS

CITY           SKY/WX    TMP DP  RH WIND       PRES   REMARKS
PRSMN GAP BBNP   N/A     46  27  46 NE12      30.43R
GUADLPE MTN NP   N/A     39  20  46 CALM      30.45R
$$



USA.gov is the U.S. government's official web portal to all federal, state and local government web resources and services.